Time,TemperatureF,DewpointF,PressureIn,WindDirection,WindDirectionDegrees,WindSpeedMPH,WindSpeedGustMPH,Humidity,HourlyPrecipIn,Conditions,Clouds,dailyrainin,SoftwareType,DateUTC
2013-09-04 00:02:00,54.7,53.0,29.79,North,10,5.0,10.0,94,0.00,,,0.00,weatherlink.com 1.10,2013-09-04 04:02:00,
2013-09-04 00:17:00,55.5,53.0,29.79,NNE,26,7.0,12.0,92,0.00,,,0.00,weatherlink.com 1.10,2013-09-04 04:17:00,
2013-09-04 00:32:00,55.9,54.0,29.79,North,5,6.0,15.0,92,0.00,,,0.00,weatherlink.com 1.10,2013-09-04 04:32:00,
2013-09-04 00:47:00,56.2,54.0,29.80,ESE,107,7.0,18.0,91,0.00,,,0.00,weatherlink.com 1.10,2013-09-04 04:47:00,
2013-09-04 01:02:00,56.2,53.0,29.79,North,10,7.0,16.0,90,0.00,,,0.00,weatherlink.com 1.10,2013-09-04 05:02:00,
2013-09-04 01:17:00,56.0,53.0,29.79,ENE,78,5.0,14.0,90,0.00,,,0.00,weatherlink.com 1.10,2013-09-04 05:17:00,
2013-09-04 01:32:00,55.8,53.0,29.79,North,355,7.0,15.0,90,0.00,,,0.00,weatherlink.com 1.10,2013-09-04 05:32:00,
2013-09-04 01:47:00,55.6,53.0,29.79,NW,313,3.0,10.0,91,0.00,,,0.00,weatherlink.com 1.10,2013-09-04 05:47:00,
2013-09-04 02:02:00,55.7,53.0,29.79,NNW,334,9.0,13.0,91,0.00,,,0.00,weatherlink.com 1.10,2013-09-04 06:02:00,
2013-09-04 02:17:00,55.5,53.0,29.79,NNW,340,7.0,14.0,92,0.00,,,0.00,weatherlink.com 1.10,2013-09-04 06:17:00,
2013-09-04 02:32:00,55.3,53.0,29.80,North,11,4.0,15.0,91,0.00,,,0.00,weatherlink.com 1.10,2013-09-04 06:32:00,
2013-09-04 02:47:00,55.0,53.0,29.80,East,84,5.0,13.0,92,0.00,,,0.00,weatherlink.com 1.10,2013-09-04 06:47:00,
2013-09-04 03:02:00,55.1,53.0,29.80,East,90,2.0,13.0,92,0.00,,,0.00,weatherlink.com 1.10,2013-09-04 07:02:00,
2013-09-04 03:17:00,55.1,53.0,29.80,WNW,286,7.0,13.0,92,0.00,,,0.00,weatherlink.com 1.10,2013-09-04 07:17:00,
2013-09-04 03:32:00,54.9,53.0,29.80,NNE,32,7.0,15.0,92,0.00,,,0.00,weatherlink.com 1.10,2013-09-04 07:32:00,
2013-09-04 03:47:00,54.6,53.0,29.81,ENE,78,3.0,11.0,93,0.00,,,0.00,weatherlink.com 1.10,2013-09-04 07:47:00,
2013-09-04 04:02:00,54.6,53.0,29.81,NNW,336,7.0,14.0,93,0.00,,,0.00,weatherlink.com 1.10,2013-09-04 08:02:00,
2013-09-04 04:17:00,54.8,53.0,29.82,ENE,69,4.0,15.0,92,0.00,,,0.00,weatherlink.com 1.10,2013-09-04 08:17:00,
2013-09-04 04:32:00,54.8,53.0,29.82,NNE,31,3.0,7.0,93,0.00,,,0.00,weatherlink.com 1.10,2013-09-04 08:32:00,
2013-09-04 04:48:00,54.7,53.0,29.83,ENE,77,2.0,5.0,93,0.00,,,0.00,weatherlink.com 1.10,2013-09-04 08:48:00,
2013-09-04 05:03:00,54.5,53.0,29.83,NNE,29,4.0,9.0,93,0.00,,,0.00,weatherlink.com 1.10,2013-09-04 09:03:00,
2013-09-04 05:18:00,54.2,52.0,29.83,ENE,62,4.0,9.0,93,0.00,,,0.00,weatherlink.com 1.10,2013-09-04 09:18:00,
2013-09-04 05:33:00,53.9,52.0,29.84,ENE,69,5.0,6.0,94,0.00,,,0.00,weatherlink.com 1.10,2013-09-04 09:33:00,
2013-09-04 05:48:00,53.9,52.0,29.84,NNE,20,2.0,8.0,94,0.00,,,0.00,weatherlink.com 1.10,2013-09-04 09:48:00,
2013-09-04 06:03:00,54.0,52.0,29.85,NNE,14,1.0,7.0,94,0.00,,,0.00,weatherlink.com 1.10,2013-09-04 10:03:00,
2013-09-04 06:18:00,54.2,53.0,29.85,NE,44,5.0,7.0,94,0.00,,,0.00,weatherlink.com 1.10,2013-09-04 10:18:00,
2013-09-04 06:33:00,54.3,52.0,29.86,NE,51,3.0,8.0,93,0.00,,,0.00,weatherlink.com 1.10,2013-09-04 10:33:00,
2013-09-04 06:48:00,54.3,52.0,29.86,NNE,25,4.0,9.0,93,0.00,,,0.00,weatherlink.com 1.10,2013-09-04 10:48:00,
2013-09-04 07:03:00,54.1,52.0,29.87,ENE,58,2.0,9.0,93,0.00,,,0.00,weatherlink.com 1.10,2013-09-04 11:03:00,
2013-09-04 07:18:00,54.2,52.0,29.87,North,5,2.0,6.0,93,0.00,,,0.00,weatherlink.com 1.10,2013-09-04 11:18:00,
2013-09-04 07:33:00,54.3,52.0,29.88,NNE,21,5.0,6.0,93,0.00,,,0.00,weatherlink.com 1.10,2013-09-04 11:33:00,
2013-09-04 07:48:00,54.3,52.0,29.88,NE,34,6.0,11.0,93,0.00,,,0.00,weatherlink.com 1.10,2013-09-04 11:48:00,
2013-09-04 08:03:00,54.7,52.0,29.89,NNE,12,6.0,16.0,90,0.00,,,0.00,weatherlink.com 1.10,2013-09-04 12:03:00,
2013-09-04 08:18:00,55.2,52.0,29.89,NNW,348,1.0,14.0,89,0.00,,,0.00,weatherlink.com 1.10,2013-09-04 12:18:00,
2013-09-04 08:33:00,55.5,52.0,29.89,NNE,22,6.0,13.0,89,0.00,,,0.00,weatherlink.com 1.10,2013-09-04 12:33:00,
2013-09-04 08:48:00,56.0,52.0,29.89,ENE,57,3.0,13.0,86,0.00,,,0.00,weatherlink.com 1.10,2013-09-04 12:48:00,
2013-09-04 09:03:00,57.1,52.0,29.89,NW,304,2.0,14.0,84,0.00,,,0.00,weatherlink.com 1.10,2013-09-04 13:03:00,
2013-09-04 09:18:00,58.2,53.0,29.89,NNW,338,5.0,10.0,82,0.00,,,0.00,weatherlink.com 1.10,2013-09-04 13:18:00,
2013-09-04 09:33:00,58.7,53.0,29.89,NNW,327,5.0,12.0,81,0.00,,,0.00,weatherlink.com 1.10,2013-09-04 13:33:00,
2013-09-04 09:48:00,59.4,53.0,29.89,NNW,344,3.0,12.0,79,0.00,,,0.00,weatherlink.com 1.10,2013-09-04 13:48:00,
2013-09-04 10:03:00,60.1,52.0,29.89,NNW,329,4.0,10.0,75,0.00,,,0.00,weatherlink.com 1.10,2013-09-04 14:03:00,
2013-09-04 10:18:00,60.7,53.0,29.89,NW,313,1.0,11.0,75,0.00,,,0.00,weatherlink.com 1.10,2013-09-04 14:18:00,
2013-09-04 10:33:00,61.7,52.0,29.89,NW,306,4.0,9.0,71,0.00,,,0.00,weatherlink.com 1.10,2013-09-04 14:33:00,
2013-09-04 10:48:00,62.3,52.0,29.89,North,355,5.0,10.0,68,0.00,,,0.00,weatherlink.com 1.10,2013-09-04 14:48:00,
2013-09-04 11:03:00,63.4,50.0,29.88,SE,133,3.0,9.0,63,0.00,,,0.00,weatherlink.com 1.10,2013-09-04 15:03:00,
2013-09-04 11:18:00,64.4,50.0,29.89,West,280,6.0,9.0,61,0.00,,,0.00,weatherlink.com 1.10,2013-09-04 15:18:00,
2013-09-04 11:33:00,64.6,49.0,29.89,North,355,8.0,13.0,57,0.00,,,0.00,weatherlink.com 1.10,2013-09-04 15:33:00,
2013-09-04 11:48:00,65.6,49.0,29.89,NNE,32,4.0,13.0,56,0.00,,,0.00,weatherlink.com 1.10,2013-09-04 15:48:00,
2013-09-04 12:03:00,65.9,50.0,29.88,NNW,336,2.0,14.0,56,0.00,,,0.00,weatherlink.com 1.10,2013-09-04 16:03:00,
2013-09-04 12:18:00,66.5,50.0,29.87,ENE,61,5.0,16.0,56,0.00,,,0.00,weatherlink.com 1.10,2013-09-04 16:18:00,
2013-09-04 12:33:00,67.1,49.0,29.87,NNE,12,6.0,11.0,53,0.00,,,0.00,weatherlink.com 1.10,2013-09-04 16:33:00,
2013-09-04 13:03:00,68.1,52.0,29.87,NNE,30,3.0,11.0,57,0.00,,,0.00,weatherlink.com 1.10,2013-09-04 17:03:00,
2013-09-04 13:18:00,68.5,50.0,29.87,ENE,57,1.0,11.0,52,0.00,,,0.00,weatherlink.com 1.10,2013-09-04 17:18:00,
2013-09-04 13:33:00,69.1,54.0,29.86,North,360,7.0,10.0,58,0.00,,,0.00,weatherlink.com 1.10,2013-09-04 17:33:00,
2013-09-04 13:48:00,69.1,51.0,29.86,North,5,5.0,14.0,53,0.00,,,0.00,weatherlink.com 1.10,2013-09-04 17:48:00,
2013-09-04 14:03:00,69.3,51.0,29.86,SSW,197,2.0,12.0,52,0.00,,,0.00,weatherlink.com 1.10,2013-09-04 18:03:00,
2013-09-04 14:18:00,69.9,52.0,29.86,North,355,2.0,8.0,53,0.00,,,0.00,weatherlink.com 1.10,2013-09-04 18:18:00,
2013-09-04 14:33:00,69.0,52.0,29.87,NNW,343,10.0,12.0,55,0.00,,,0.00,weatherlink.com 1.10,2013-09-04 18:33:00,
2013-09-04 14:48:00,69.4,52.0,29.86,ESE,110,3.0,10.0,55,0.00,,,0.00,weatherlink.com 1.10,2013-09-04 18:48:00,
2013-09-04 15:04:00,69.4,53.0,29.87,WNW,296,3.0,9.0,56,0.00,,,0.00,weatherlink.com 1.10,2013-09-04 19:04:00,
2013-09-04 15:18:00,69.7,53.0,29.86,WNW,290,2.0,8.0,56,0.00,,,0.00,weatherlink.com 1.10,2013-09-04 19:18:00,
2013-09-04 15:33:00,69.8,52.0,29.86,North,5,8.0,8.0,54,0.00,,,0.00,weatherlink.com 1.10,2013-09-04 19:33:00,
2013-09-04 15:49:00,70.1,52.0,29.86,North,355,7.0,10.0,52,0.00,,,0.00,weatherlink.com 1.10,2013-09-04 19:49:00,
2013-09-04 16:04:00,70.0,52.0,29.86,NNW,341,3.0,8.0,53,0.00,,,0.00,weatherlink.com 1.10,2013-09-04 20:04:00,
2013-09-04 16:19:00,70.3,53.0,29.86,North,5,2.0,8.0,54,0.00,,,0.00,weatherlink.com 1.10,2013-09-04 20:19:00,
2013-09-04 16:34:00,70.5,53.0,29.86,SW,225,1.0,7.0,54,0.00,,,0.00,weatherlink.com 1.10,2013-09-04 20:34:00,
2013-09-04 16:49:00,70.8,53.0,29.85,WSW,245,0.0,9.0,54,0.00,,,0.00,weatherlink.com 1.10,2013-09-04 20:49:00,
2013-09-04 17:04:00,71.0,52.0,29.85,NE,38,2.0,7.0,52,0.00,,,0.00,weatherlink.com 1.10,2013-09-04 21:04:00,
2013-09-04 17:19:00,70.5,53.0,29.85,North,355,5.0,5.0,54,0.00,,,0.00,weatherlink.com 1.10,2013-09-04 21:19:00,
2013-09-04 17:34:00,70.5,53.0,29.85,NNE,21,2.0,5.0,55,0.00,,,0.00,weatherlink.com 1.10,2013-09-04 21:34:00,
2013-09-04 17:49:00,69.9,54.0,29.86,SSE,165,1.0,6.0,57,0.00,,,0.00,weatherlink.com 1.10,2013-09-04 21:49:00,
2013-09-04 18:04:00,67.8,54.0,29.85,ENE,76,2.0,8.0,62,0.00,,,0.00,weatherlink.com 1.10,2013-09-04 22:04:00,
2013-09-04 18:19:00,66.1,55.0,29.86,South,173,2.0,7.0,67,0.00,,,0.00,weatherlink.com 1.10,2013-09-04 22:19:00,
2013-09-04 18:34:00,64.5,55.0,29.86,SSE,159,1.0,4.0,70,0.00,,,0.00,weatherlink.com 1.10,2013-09-04 22:34:00,
2013-09-04 18:49:00,62.6,52.0,29.86,NE,55,1.0,5.0,69,0.00,,,0.00,weatherlink.com 1.10,2013-09-04 22:49:00,
2013-09-04 19:04:00,62.1,53.0,29.86,East,95,0.0,5.0,72,0.00,,,0.00,weatherlink.com 1.10,2013-09-04 23:04:00,
2013-09-04 19:19:00,60.3,53.0,29.86,East,94,0.0,3.0,78,0.00,,,0.00,weatherlink.com 1.10,2013-09-04 23:19:00,
2013-09-04 19:34:00,58.7,53.0,29.86,East,94,2.0,2.0,80,0.00,,,0.00,weatherlink.com 1.10,2013-09-04 23:34:00,
2013-09-04 19:49:00,59.3,53.0,29.86,North,5,0.0,4.0,80,0.00,,,0.00,weatherlink.com 1.10,2013-09-04 23:49:00,
2013-09-04 20:04:00,60.0,53.0,29.87,North,355,0.0,4.0,78,0.00,,,0.00,weatherlink.com 1.10,2013-09-05 00:04:00,
2013-09-04 20:19:00,60.3,54.0,29.87,SSE,148,1.0,3.0,79,0.00,,,0.00,weatherlink.com 1.10,2013-09-05 00:19:00,
2013-09-04 20:34:00,59.5,54.0,29.88,NNE,19,1.0,5.0,81,0.00,,,0.00,weatherlink.com 1.10,2013-09-05 00:34:00,
2013-09-04 20:49:00,59.6,53.0,29.88,NNE,22,1.0,5.0,80,0.00,,,0.00,weatherlink.com 1.10,2013-09-05 00:49:00,
2013-09-04 21:04:00,58.1,53.0,29.88,NNE,22,1.0,2.0,84,0.00,,,0.00,weatherlink.com 1.10,2013-09-05 01:04:00,
2013-09-04 21:19:00,57.5,53.0,29.88,ENE,60,0.0,3.0,86,0.00,,,0.00,weatherlink.com 1.10,2013-09-05 01:19:00,
2013-09-04 21:34:00,58.4,54.0,29.88,NE,50,4.0,6.0,84,0.00,,,0.00,weatherlink.com 1.10,2013-09-05 01:34:00,
2013-09-04 21:49:00,62.1,54.0,29.88,North,5,3.0,11.0,76,0.00,,,0.00,weatherlink.com 1.10,2013-09-05 01:49:00,
2013-09-04 22:04:00,62.0,54.0,29.88,NNE,24,2.0,6.0,76,0.00,,,0.00,weatherlink.com 1.10,2013-09-05 02:04:00,
2013-09-04 22:19:00,59.8,54.0,29.89,NNE,24,1.0,2.0,81,0.00,,,0.00,weatherlink.com 1.10,2013-09-05 02:19:00,
2013-09-04 22:35:00,58.3,54.0,29.88,NNE,24,1.0,4.0,84,0.00,,,0.00,weatherlink.com 1.10,2013-09-05 02:35:00,
2013-09-04 22:50:00,58.3,54.0,29.88,NNE,29,1.0,3.0,85,0.00,,,0.00,weatherlink.com 1.10,2013-09-05 02:50:00,
2013-09-04 23:05:00,58.5,54.0,29.87,NW,306,1.0,3.0,85,0.00,,,0.00,weatherlink.com 1.10,2013-09-05 03:05:00,
2013-09-04 23:20:00,58.4,53.0,29.87,South,178,2.0,4.0,83,0.00,,,0.00,weatherlink.com 1.10,2013-09-05 03:20:00,
2013-09-04 23:35:00,58.9,54.0,29.87,ENE,59,1.0,3.0,83,0.00,,,0.00,weatherlink.com 1.10,2013-09-05 03:35:00,
2013-09-04 23:50:00,60.5,54.0,29.87,North,360,0.0,5.0,79,0.00,,,0.00,weatherlink.com 1.10,2013-09-05 03:50:00,